2023/03/01 00:00:00,11.0, 0.5
2023/03/01 00:10:00,11.0, 0.4
2023/03/01 00:20:00,11.0, 0.4
2023/03/01 00:30:00,11.0, 0.4
2023/03/01 00:40:00,10.9, 0.4
2023/03/01 00:50:00,10.9, 0.4
2023/03/01 01:00:00,10.9, 0.4
2023/03/01 01:10:00,10.7, 0.5
2023/03/01 01:20:00,10.5, 0.5
2023/03/01 01:30:00,10.4, 0.5
2023/03/01 01:40:00,10.3, 0.6
2023/03/01 01:50:00,10.4, 0.6
2023/03/01 02:00:00,10.5, 0.2
2023/03/01 02:10:00,10.5, 0.6
2023/03/01 02:20:00,10.5, 0.8
2023/03/01 02:30:00,10.5, 0.6
2023/03/01 02:40:00,10.6, 0.6
2023/03/01 02:50:00,10.7, 0.7
2023/03/01 03:00:00,10.9, 0.9
2023/03/01 03:10:00,11.0, 0.8
2023/03/01 03:20:00,11.0, 1.1
2023/03/01 03:30:00,11.1, 0.8
2023/03/01 03:40:00,11.1, 0.9
2023/03/01 03:50:00,11.1, 0.7
2023/03/01 04:00:00,11.1, 0.9
2023/03/01 04:10:00,11.0, 0.8
2023/03/01 04:20:00,11.0, 0.8
2023/03/01 04:30:00,11.0, 1.0
2023/03/01 04:40:00,10.8, 0.9
2023/03/01 04:50:00,10.8, 0.9
2023/03/01 05:00:00,10.9, 1.1
2023/03/01 05:10:00,10.8, 0.9
2023/03/01 05:20:00,10.7, 0.8
2023/03/01 05:30:00,10.7, 0.6
2023/03/01 05:40:00,10.7, 0.7
2023/03/01 05:50:00,10.7, 0.4
2023/03/01 06:00:00,10.6, 0.5
2023/03/01 06:10:00,10.5, 0.6
2023/03/01 06:20:00,10.6, 0.5
2023/03/01 06:30:00,10.7, 0.0
2023/03/01 06:40:00,10.7, 0.6
2023/03/01 06:50:00,10.7, 0.5
2023/03/01 07:00:00,10.7, 0.4
2023/03/01 07:10:00,10.9, 0.6
2023/03/01 07:20:00,11.0, 0.7
2023/03/01 07:30:00,11.0, 0.7
2023/03/01 07:40:00,11.0, 0.9
2023/03/01 07:50:00,11.0, 1.2
2023/03/01 08:00:00,11.0, 0.8
2023/03/01 08:10:00,11.1, 1.3
2023/03/01 08:20:00,11.1, 1.4
2023/03/01 08:30:00,11.1, 1.8
2023/03/01 08:40:00,11.0, 2.1
2023/03/01 08:50:00,10.8, 2.4
2023/03/01 09:00:00,10.7, 2.9
2023/03/01 09:10:00,10.9, 3.1
2023/03/01 09:20:00,11.0, 3.7
2023/03/01 09:30:00,10.8, 3.9
2023/03/01 09:40:00,10.7, 4.4
2023/03/01 09:50:00,10.5, 5.0
2023/03/01 10:00:00,10.9, 5.7
2023/03/01 10:10:00,11.8, 6.7
2023/03/01 10:20:00,12.3, 7.3
2023/03/01 10:30:00,11.4, 6.4
2023/03/01 10:40:00,11.7, 8.0
2023/03/01 10:50:00,11.7, 9.6
2023/03/01 11:00:00,12.0,10.4
2023/03/01 11:10:00,11.7,10.7
2023/03/01 11:20:00,11.9,10.5
2023/03/01 11:30:00,11.5,10.4
2023/03/01 11:40:00,11.5,10.2
2023/03/01 11:50:00,11.9,10.8
2023/03/01 12:00:00,11.9,11.3
2023/03/01 12:10:00,11.7,11.6
2023/03/01 12:20:00,10.7,12.1
2023/03/01 12:30:00,10.2,12.2
2023/03/01 12:40:00, 9.8,11.4
2023/03/01 12:50:00, 9.7,10.5
2023/03/01 13:00:00, 9.8,10.9
2023/03/01 13:10:00,---,11.8
2023/03/01 13:20:00, 0.0,12.2
2023/03/01 13:30:00, 0.0,12.5
2023/03/01 13:40:00, 0.0,12.4
2023/03/01 13:50:00,---,12.1
2023/03/01 14:00:00, 8.2,12.0
2023/03/01 14:10:00, 8.2,11.4
2023/03/01 14:20:00, 7.8, 9.5
2023/03/01 14:30:00, 7.9, 8.9
2023/03/01 14:40:00, 7.4, 8.1
2023/03/01 14:50:00, 7.1,10.8
2023/03/01 15:00:00, 6.8, 9.8
2023/03/01 15:10:00, 6.6, 9.2
2023/03/01 15:20:00, 6.6,10.1
2023/03/01 15:30:00, 6.6,10.2
2023/03/01 15:40:00, 6.4, 9.2
2023/03/01 15:50:00, 6.4, 8.5
2023/03/01 16:00:00, 6.2, 8.7
2023/03/01 16:10:00, 6.0, 8.3
2023/03/01 16:20:00, 5.9, 7.9
2023/03/01 16:30:00, 5.7, 8.9
2023/03/01 16:40:00, 5.8, 7.4
2023/03/01 16:50:00, 6.1, 6.7
2023/03/01 17:00:00, 6.2, 6.8
2023/03/01 17:10:00, 5.9, 6.3
2023/03/01 17:20:00, 5.7, 6.0
2023/03/01 17:30:00, 5.6, 9.1
2023/03/01 17:40:00, 5.6, 6.8
2023/03/01 17:50:00, 5.5, 6.7
2023/03/01 18:00:00, 5.5, 6.3
2023/03/01 18:10:00, 5.2, 4.6
2023/03/01 18:20:00, 5.1, 4.1
2023/03/01 18:30:00, 5.1, 4.9
2023/03/01 18:40:00, 5.2, 6.6
2023/03/01 18:50:00, 5.2, 6.7
2023/03/01 19:00:00, 4.9, 6.2
2023/03/01 19:10:00, 4.8, 4.3
2023/03/01 19:20:00, 4.8, 4.0
2023/03/01 19:30:00, 4.7, 4.0
2023/03/01 19:40:00, 4.7, 4.6
2023/03/01 19:50:00, 4.7, 4.4
2023/03/01 20:00:00, 4.4, 4.4
2023/03/01 20:10:00, 3.9, 5.4
2023/03/01 20:20:00, 3.7, 4.3
2023/03/01 20:30:00, 3.5, 3.9
2023/03/01 20:40:00, 3.5, 3.7
2023/03/01 20:50:00, 3.7, 3.5
2023/03/01 21:00:00, 3.7, 3.5
2023/03/01 21:10:00, 3.7, 3.5
2023/03/01 21:20:00, 3.7, 3.6
2023/03/01 21:30:00, 3.4, 3.8
2023/03/01 21:40:00, 2.9, 3.6
2023/03/01 21:50:00, 2.5, 3.6
2023/03/01 22:00:00, 2.1, 3.7
2023/03/01 22:10:00, 1.8, 3.8
2023/03/01 22:20:00, 1.8, 3.4
2023/03/01 22:30:00, 1.4, 3.1
2023/03/01 22:40:00, 1.3, 3.3
2023/03/01 22:50:00, 0.8, 2.9
2023/03/01 23:00:00, 0.8, 3.1
2023/03/01 23:10:00, 0.6, 3.3
2023/03/01 23:20:00, 0.4, 3.4
2023/03/01 23:30:00, 0.3, 3.1
2023/03/01 23:40:00, 0.3, 3.2
2023/03/01 23:50:00, 0.1, 3.3
